Temp
61 61 61 61 61 60 60 60 60 60 61 61 62 62 62 62 61 62 62 74 76 76 73 83 82 81 81 75 78 76 59 55 63 67 72 79 77 84 88 87 90 86 81 83 81
61 61 61 61 60 60 60 60 60 60 60 61 61 61 61 61 60 64 75 77 75 75 79 77 76 78 69 71 72 67 56 62 74 76 73 77 78 82 84 83 83 82 81 81 83
61 61 61 61 61 60 60 60 60 60 60 61 61 61 61 60 60 74 75 76 75 76 81 81 81 77 67 70 71 69 63 72 78 80 79 78 79 82 81 74 82 78 78 79 81
60 60 60 60 60 60 60 60 60 60 60 60 60 61 61 61 58 75 76 75 76 80 80 77 75 67 64 65 73 64 74 76 80 82 78 76 79 80 78 79 88 85 83 81 79
59 60 60 59 59 59 59 59 60 60 60 60 60 61 58 60 66 76 76 76 78 78 76 74 70 69 63 69 72 67 74 78 81 80 75 80 77 77 78 86 90 88 88 84 85
59 59 59 59 59 59 59 59 58 58 59 60 60 60 59 58 84 82 81 79 81 77 77 76 75 77 72 70 65 74 74 75 77 76 74 73 76 74 80 86 87 87 85 84 84
58 58 59 59 59 59 59 58 58 58 60 61 61 64 66 66 88 83 86 82 83 84 79 81 82 74 74 69 75 75 68 73 75 75 72 76 70 73 81 85 82 85 85 85 84
58 58 58 58 59 59 59 58 59 62 62 61 62 64 61 85 84 85 86 85 88 87 85 86 84 76 69 74 73 66 64 55 70 76 78 73 62 76 81 80 80 82 84 86 80
58 57 58 58 59 59 58 58 60 64 62 62 60 60 64 81 85 88 85 85 87 87 83 94 79 70 72 62 56 58 54 59 67 76 76 73 65 76 81 78 78 79 81 82 79
58 57 57 58 58 58 57 58 63 61 62 70 74 63 74 80 87 89 87 89 83 80 78 74 67 60 59 54 46 53 55 60 64 74 73 69 66 74 79 78 77 78 78 78 78
58 57 57 57 58 57 56 64 63 61 61 68 72 76 84 89 90 85 88 83 82 74 62 69 57 53 60 63 66 66 64 63 69 76 71 67 68 72 76 71 73 76 77 76 77
57 57 57 57 57 57 53 65 72 73 63 79 81 83 88 85 79 84 88 72 71 62 67 61 55 66 72 71 69 66 63 62 70 75 68 66 65 72 73 70 74 76 76 75 73
56 56 57 56 56 60 69 78 83 79 60 75 82 82 79 81 78 79 82 76 69 63 64 58 65 76 73 69 67 65 61 62 62 70 69 65 60 65 72 74 74 71 76 75 74
56 56 56 55 62 69 74 83 82 78 52 70 75 78 83 81 75 88 86 76 69 63 66 63 71 72 70 68 69 58 70 70 68 61 52 61 47 59 66 69 72 70 73 74 74
56 56 56 55 57 66 78 82 78 71 43 74 76 84 82 74 76 79 86 76 67 67 66 62 66 66 66 68 73 66 72 68 66 58 51 59 48 55 63 64 68 68 72 72 74
56 56 55 64 58 71 80 80 73 52 46 69 78 73 71 76 78 80 79 79 77 67 68 66 75 72 70 74 74 76 70 67 60 54 45 52 52 54 60 63 68 70 73 73 73
55 55 53 67 65 80 80 70 50 46 71 66 68 72 69 69 72 73 71 63 57 53 53 64 65 69 72 63 66 66 56 48 45 40 41 57 52 52 51 53 72 70 70 72 73
54 53 58 73 76 79 71 57 43 65 64 73 70 69 64 69 67 69 65 59 66 61 53 49 47 62 69 64 55 59 52 47 36 38 43 54 49 51 58 56 60 56 64 66 64
52 63 68 74 78 73 61 47 52 61 68 65 67 62 63 69 65 64 61 60 63 60 48 47 50 66 69 68 64 58 49 58 47 46 40 46 55 57 57 54 54 53 55 59 62
51 60 69 81 78 69 55 52 61 70 69 67 56 63 54 59 58 58 58 64 63 64 60 53 43 60 65 63 59 52 60 42 44 33 31 42 47 47 50 49 53 51 52 55 59
53 59 73 81 75 61 50 57 67 73 70 62 58 56 57 56 57 55 58 63 63 61 60 53 45 49 58 52 47 50 46 48 46 42 35 31 40 52 52 51 51 51 52 52 54
56 56 75 76 57 58 54 62 59 69 70 67 62 61 57 57 54 54 55 59 65 62 53 51 45 38 47 59 61 52 46 44 36 38 43 38 38 53 53 52 51 51 53 52 53
51 59 75 72 52 53 61 67 69 66 65 63 60 62 60 54 47 56 57 66 64 60 51 50 40 33 40 48 51 43 47 47 46 42 37 34 36 54 57 53 53 52 53 55 56
53 54 62 62 63 56 54 58 60 69 65 65 60 61 56 53 55 51 56 65 65 63 61 56 43 38 31 39 46 46 50 52 47 38 39 39 41 48 51 52 54 54 55 57 58
56 55 57 51 55 56 56 58 58 58 64 62 56 59 54 46 49 49 56 58 62 59 56 49 38 43 47 52 53 51 52 50 47 49 43 49 49 47 50 51 55 61 63 65 65
54 52 56 55 57 57 54 55 58 60 57 56 52 58 55 47 48 44 49 48 47 53 49 50 37 43 42 51 52 48 52 54 53 54 54 53 50 55 56 58 58 60 62 61 62
59 60 54 53 54 54 55 57 59 59 59 63 58 53 51 53 55 53 51 51 50 45 44 43 39 36 32 47 47 37 49 53 52 54 52 44 51 55 54 56 54 54 57 57 57
MSLP
1019.33 1018.85 1018.39 1017.95 1017.56 1017.17 1016.82 1016.49 1016.19 1015.88 1015.53 1015.24 1014.98 1014.72 1014.48 1014.18 1013.58 1013.16 1012.11 1009.61 1009.24 1009.25 1009.48 1009.15 1009.06 1008.98 1008.89 1008.84 1008.31 1008.24 1009.20 1009.30 1008.10 1006.50 1005.07 1003.38 1002.99 1001.72 1001.21 1001.90 1002.45 1003.85 1004.96 1004.92 1005.41
1019.35 1018.83 1018.32 1017.87 1017.49 1017.07 1016.68 1016.32 1015.98 1015.72 1015.49 1015.17 1014.90 1014.67 1014.43 1014.13 1013.50 1011.71 1008.79 1008.51 1008.57 1008.86 1009.44 1009.34 1009.10 1008.98 1009.24 1008.68 1008.57 1008.39 1008.69 1008.27 1006.82 1006.15 1005.68 1004.12 1003.52 1002.74 1002.23 1002.35 1002.96 1004.25 1005.10 1005.14 1005.48
1019.29 1018.73 1018.23 1017.74 1017.22 1016.77 1016.41 1016.10 1015.84 1015.55 1015.32 1015.04 1014.78 1014.55 1014.33 1014.03 1013.06 1009.25 1008.03 1007.73 1008.44 1008.62 1008.81 1008.87 1008.68 1008.74 1009.02 1008.62 1008.37 1008.09 1008.15 1007.43 1006.01 1005.69 1005.04 1004.16 1003.80 1003.39 1003.18 1003.10 1003.28 1004.76 1005.66 1005.60 1005.59
1019.33 1018.76 1018.18 1017.59 1016.99 1016.49 1016.08 1015.74 1015.43 1015.22 1015.02 1014.78 1014.63 1014.45 1014.26 1013.88 1011.69 1008.47 1008.17 1008.14 1008.34 1008.57 1008.84 1008.82 1008.69 1008.83 1008.81 1008.80 1007.85 1007.77 1007.13 1006.61 1005.45 1004.90 1004.63 1004.23 1003.75 1003.84 1003.71 1003.58 1003.18 1004.11 1004.85 1005.38 1005.51
1019.28 1018.71 1018.10 1017.42 1016.78 1016.23 1015.77 1015.36 1015.00 1014.76 1014.63 1014.50 1014.42 1014.35 1014.22 1013.13 1010.02 1008.04 1008.12 1008.37 1008.64 1008.73 1008.79 1008.86 1008.68 1008.38 1008.43 1008.06 1007.57 1007.44 1006.81 1005.92 1005.11 1004.57 1004.35 1004.00 1004.03 1004.02 1003.97 1003.59 1003.33 1003.67 1004.70 1005.14 1005.02
1019.16 1018.48 1017.79 1017.15 1016.55 1015.96 1015.40 1014.94 1014.60 1014.38 1014.22 1014.14 1014.16 1014.27 1013.73 1011.53 1007.25 1007.54 1007.75 1008.32 1008.29 1008.39 1008.43 1008.38 1008.08 1007.50 1007.59 1007.58 1007.52 1006.83 1006.41 1005.74 1005.22 1004.60 1004.14 1004.11 1004.07 1004.03 1004.03 1003.65 1003.75 1003.39 1003.95 1004.45 1004.49
1019.08 1018.30 1017.58 1016.94 1016.36 1015.69 1015.06 1014.58 1014.30 1014.02 1013.73 1013.61 1013.87 1013.79 1012.44 1009.57 1006.91 1007.37 1007.11 1007.42 1007.54 1007.86 1008.03 1007.48 1007.25 1007.37 1007.44 1007.63 1006.91 1006.84 1006.82 1005.83 1005.12 1004.63 1004.15 1004.09 1004.08 1004.16 1003.96 1003.94 1003.96 1003.76 1003.66 1003.81 1004.20
1018.94 1018.08 1017.25 1016.61 1016.05 1015.42 1014.84 1014.29 1014.04 1013.70 1013.57 1013.61 1013.85 1013.29 1011.03 1007.40 1006.71 1006.98 1006.72 1006.86 1006.93 1007.03 1007.26 1006.99 1006.92 1007.23 1007.48 1007.49 1007.50 1007.81 1007.18 1006.61 1005.55 1004.69 1004.00 1004.22 1003.99 1003.79 1003.61 1003.76 1003.98 1003.65 1003.62 1003.93 1005.10
1018.83 1017.93 1016.93 1016.09 1015.74 1015.17 1014.55 1013.95 1013.71 1013.58 1013.62 1013.74 1013.74 1012.68 1009.51 1006.91 1006.76 1006.41 1006.43 1006.61 1006.66 1006.77 1006.89 1006.87 1007.21 1007.89 1008.06 1008.33 1008.69 1008.39 1007.88 1007.06 1005.69 1004.17 1003.68 1003.73 1003.76 1003.66 1003.18 1003.51 1003.64 1003.58 1003.66 1004.48 1005.45
1018.75 1017.86 1016.82 1015.88 1015.10 1014.71 1014.05 1013.38 1013.16 1013.46 1013.52 1013.26 1012.33 1011.75 1008.38 1006.62 1006.17 1006.14 1006.19 1006.33 1006.51 1006.76 1007.23 1007.49 1008.07 1008.56 1008.89 1009.11 1009.07 1008.49 1007.69 1006.57 1005.50 1004.06 1003.56 1003.41 1003.41 1003.37 1003.03 1003.06 1002.93 1003.58 1003.92 1005.28 1006.00
1018.62 1017.76 1016.77 1015.75 1014.78 1014.64 1013.79 1013.02 1013.30 1013.22 1012.47 1010.95 1009.75 1008.47 1006.84 1006.24 1006.10 1005.98 1006.13 1006.44 1006.70 1007.08 1007.82 1008.02 1008.77 1008.85 1008.75 1008.45 1008.08 1007.88 1007.26 1006.35 1005.12 1004.00 1003.71 1002.66 1003.24 1003.22 1002.91 1003.17 1003.22 1003.54 1004.14 1005.69 1006.17
1018.47 1017.60 1016.55 1015.41 1014.37 1014.03 1014.46 1013.01 1011.21 1011.00 1010.38 1009.00 1007.87 1007.04 1006.43 1006.30 1005.97 1005.65 1006.08 1006.84 1007.17 1007.67 1008.02 1008.47 1008.42 1008.02 1007.73 1007.38 1007.22 1007.00 1006.63 1005.94 1004.90 1003.91 1004.06 1003.79 1003.66 1003.19 1003.08 1003.21 1003.46 1003.58 1004.39 1005.75 1006.41
1018.45 1017.55 1016.55 1015.27 1014.14 1013.12 1012.79 1011.12 1009.84 1009.85 1010.08 1007.88 1006.72 1006.17 1005.88 1006.03 1005.66 1005.55 1006.06 1006.63 1007.32 1007.79 1008.13 1008.16 1007.56 1006.97 1006.89 1006.67 1006.46 1006.21 1006.05 1005.64 1005.20 1004.34 1004.09 1004.31 1004.33 1003.94 1003.29 1003.22 1003.49 1004.05 1003.92 1005.62 1006.43
1018.37 1017.53 1016.69 1015.36 1013.98 1013.09 1011.55 1010.23 1009.79 1010.09 1009.95 1007.31 1006.21 1005.68 1005.56 1005.61 1005.58 1005.53 1005.77 1006.36 1006.95 1007.49 1007.86 1007.52 1006.97 1006.63 1006.20 1005.81 1005.79 1005.39 1005.24 1005.16 1005.22 1005.39 1005.26 1005.25 1005.45 1004.93 1004.11 1003.95 1004.10 1004.70 1004.87 1005.66 1006.58
1018.09 1017.32 1016.48 1016.58 1015.38 1013.47 1011.19 1010.15 1010.04 1010.30 1009.25 1006.60 1005.73 1005.37 1005.47 1005.77 1005.71 1005.49 1005.83 1006.29 1007.01 1007.46 1007.83 1007.25 1006.83 1006.36 1005.81 1005.36 1005.05 1004.69 1004.93 1005.17 1005.56 1006.03 1006.39 1006.08 1006.48 1005.88 1005.18 1005.05 1004.90 1004.95 1005.17 1005.92 1006.61
1017.78 1016.98 1016.73 1015.03 1014.97 1012.31 1011.13 1010.33 1010.32 1010.65 1008.26 1006.71 1006.06 1005.99 1006.07 1005.76 1005.60 1005.54 1005.91 1006.19 1006.46 1007.18 1007.31 1007.19 1006.37 1006.14 1005.52 1005.03 1004.91 1004.77 1004.94 1005.27 1005.89 1006.78 1007.25 1007.25 1007.47 1007.32 1007.27 1006.48 1005.41 1005.21 1005.58 1006.19 1007.04
1017.23 1016.14 1016.67 1015.02 1013.17 1011.23 1010.94 1010.77 1010.93 1009.75 1007.26 1007.29 1006.94 1006.93 1006.93 1006.76 1006.37 1006.42 1006.57 1006.89 1007.73 1007.82 1007.82 1007.22 1006.73 1006.64 1006.53 1006.09 1005.62 1005.88 1005.80 1006.80 1007.76 1008.13 1007.73 1007.96 1008.51 1009.40 1009.38 1008.81 1005.68 1005.71 1006.49 1007.03 1007.37
1016.76 1015.12 1014.03 1013.05 1011.92 1011.31 1011.44 1011.57 1010.84 1008.89 1008.20 1008.01 1007.94 1007.79 1007.62 1007.23 1007.30 1007.45 1007.75 1008.19 1008.21 1008.58 1008.86 1008.51 1007.86 1007.67 1007.64 1007.66 1007.87 1008.03 1008.70 1008.81 1008.72 1009.57 1009.23 1009.34 1009.54 1010.50 1010.90 1010.22 1009.80 1009.58 1008.99 1008.54 1009.02
1016.35 1014.35 1013.20 1011.73 1011.54 1011.60 1012.09 1011.68 1010.18 1009.58 1009.62 1009.26 1008.79 1008.30 1007.90 1007.96 1008.43 1008.53 1008.78 1009.14 1009.52 1009.88 1010.63 1010.28 1009.56 1008.77 1008.79 1008.59 1008.86 1008.70 1010.06 1010.63 1010.53 1010.39 1010.56 1010.39 1010.17 1010.78 1010.86 1011.18 1012.59 1012.64 1012.58 1012.61 1011.32
1017.14 1014.91 1012.45 1010.72 1010.89 1011.63 1012.26 1011.33 1010.14 1010.14 1010.35 1010.17 1010.03 1009.71 1009.80 1009.73 1009.80 1009.89 1009.93 1009.91 1010.42 1011.03 1011.45 1011.81 1011.39 1010.57 1009.96 1010.00 1010.13 1010.80 1010.95 1012.60 1012.81 1013.02 1012.76 1011.72 1011.47 1011.80 1012.65 1013.67 1014.04 1014.56 1015.08 1015.00 1014.98
1017.01 1014.62 1011.41 1010.61 1010.79 1011.82 1012.16 1011.07 1010.45 1010.41 1010.79 1011.01 1011.14 1011.30 1011.39 1011.39 1011.35 1011.27 1010.98 1011.07 1011.56 1012.01 1012.37 1012.97 1012.81 1012.13 1011.53 1011.22 1011.78 1012.46 1012.42 1013.55 1014.21 1014.49 1014.16 1013.41 1013.34 1012.60 1012.84 1013.96 1015.22 1016.14 1016.75 1016.43 1017.12
1017.23 1014.54 1011.21 1010.67 1011.60 1011.64 1011.67 1011.39 1011.59 1010.81 1011.02 1011.30 1011.70 1012.00 1012.22 1012.41 1012.50 1012.42 1011.92 1011.70 1012.14 1012.59 1013.20 1013.88 1013.88 1013.37 1012.72 1011.96 1012.14 1014.22 1014.73 1015.17 1015.98 1015.23 1014.84 1014.15 1014.24 1013.58 1013.56 1013.91 1015.05 1015.83 1016.51 1017.03 1017.83
1018.83 1014.96 1011.32 1010.95 1012.16 1012.65 1012.29 1011.63 1011.31 1011.39 1011.59 1012.04 1012.39 1012.68 1012.94 1013.32 1013.51 1012.76 1012.50 1012.08 1012.34 1012.92 1013.92 1014.57 1014.94 1014.73 1013.62 1013.00 1013.24 1014.20 1014.58 1015.00 1015.50 1016.09 1014.94 1014.23 1014.25 1014.10 1014.20 1014.85 1015.41 1015.78 1016.58 1016.71 1016.95
1019.47 1015.94 1013.36 1012.86 1013.38 1013.65 1013.53 1012.71 1012.01 1011.74 1012.08 1012.44 1012.98 1013.28 1013.54 1013.77 1013.72 1013.54 1013.13 1012.52 1012.61 1013.09 1014.03 1014.83 1015.72 1016.07 1015.65 1014.87 1014.50 1014.22 1014.05 1013.75 1014.42 1014.03 1013.72 1013.42 1013.86 1014.00 1013.69 1014.04 1014.87 1015.64 1015.95 1016.20 1015.85
1019.40 1017.30 1016.58 1015.26 1014.81 1014.86 1014.37 1013.75 1013.05 1012.42 1012.54 1012.88 1013.26 1013.61 1013.87 1014.25 1014.32 1014.43 1014.03 1013.69 1013.54 1014.16 1014.43 1015.16 1016.04 1016.16 1015.76 1014.83 1013.97 1013.62 1013.30 1013.31 1013.41 1012.61 1012.58 1012.14 1012.42 1013.15 1013.07 1013.33 1013.48 1013.75 1013.87 1014.70 1014.39
1019.73 1019.01 1017.95 1017.17 1015.90 1015.08 1014.52 1013.81 1013.33 1012.98 1013.42 1013.56 1013.95 1014.18 1014.51 1014.92 1015.30 1015.49 1015.53 1015.45 1015.23 1015.07 1015.46 1015.65 1016.32 1016.57 1016.14 1015.18 1014.14 1013.12 1012.73 1012.16 1012.18 1011.37 1011.24 1011.47 1011.86 1012.22 1012.20 1012.45 1012.94 1013.25 1013.55 1014.09 1014.73
1020.54 1019.76 1019.06 1017.77 1016.71 1015.81 1014.58 1013.80 1013.73 1013.86 1014.15 1014.04 1014.36 1014.84 1015.31 1015.62 1015.71 1015.85 1015.93 1015.94 1015.83 1015.98 1016.29 1016.49 1016.72 1017.21 1016.73 1015.85 1014.74 1013.45 1011.76 1011.12 1011.00 1011.10 1011.33 1011.56 1011.63 1011.54 1012.15 1013.08 1013.71 1014.08 1014.42 1015.09 1015.57
Wind_Speed
20 21 20 19 19 19 19 18 17 16 15 15 14 13 13 13 16 4 7 13 8 11 3 7 5 7 8 6 7 5 2 6 11 9 11 8 9 4 1 5 6 5 8 9 10
21 21 20 20 20 19 19 18 17 16 15 14 13 12 12 12 5 9 12 12 8 9 4 8 7 8 4 6 5 3 2 9 13 11 8 9 10 10 7 5 4 6 7 1 11
21 21 21 22 21 20 19 18 17 16 15 14 13 12 11 9 5 5 8 15 10 10 4 7 10 7 6 6 9 8 8 10 18 12 8 8 9 7 9 4 5 8 9 9 5
22 22 22 22 21 20 19 18 17 16 14 14 12 11 9 4 0 2 2 7 8 4 5 6 7 6 6 7 9 6 11 10 16 11 8 6 4 10 5 6 6 15 17 12 12
22 23 23 21 21 19 18 17 17 16 14 12 9 7 4 3 11 5 7 5 5 4 7 9 7 7 7 7 9 6 11 11 12 12 7 5 5 5 9 11 9 2 15 18 17
22 22 22 21 20 19 17 15 13 13 12 9 7 3 2 4 3 10 9 7 6 6 6 9 9 10 7 8 5 8 10 10 9 11 6 4 6 2 7 10 9 10 6 8 11
23 23 22 21 19 19 18 15 11 11 11 8 7 5 4 14 4 8 10 9 7 8 8 10 10 4 7 9 8 9 10 13 12 7 6 6 6 7 9 9 10 12 8 5 3
23 24 23 22 20 18 18 16 11 9 6 2 7 4 7 8 2 8 6 6 8 9 10 11 7 6 5 7 10 9 8 5 9 11 11 7 10 7 11 9 11 10 8 6 8
24 25 25 25 20 18 17 16 10 7 2 6 4 3 9 1 4 6 6 6 9 8 3 9 6 4 9 5 6 5 8 12 14 12 11 13 9 9 12 6 11 8 6 2 7
25 25 26 26 24 20 21 10 1 6 4 7 9 4 7 2 4 2 4 7 5 2 3 4 1 2 4 1 6 8 7 10 12 13 9 12 8 8 10 7 11 8 5 9 10
25 25 26 26 26 19 12 3 3 1 3 8 9 6 6 9 5 4 5 3 6 3 5 7 3 6 12 12 13 13 17 17 16 17 11 11 8 7 9 2 6 7 5 13 12
26 27 28 28 27 22 3 5 3 7 8 14 15 6 5 1 5 7 8 2 5 5 6 5 8 12 13 13 12 12 15 15 15 16 5 6 6 7 5 3 8 10 9 14 9
26 27 27 30 30 8 5 9 6 7 2 10 8 5 2 2 3 5 10 7 6 6 9 9 10 13 14 16 15 13 9 10 9 12 7 7 5 6 4 7 5 3 12 11 12
26 26 25 31 4 6 5 9 7 5 2 6 4 2 5 5 4 4 2 2 3 7 9 10 12 14 16 16 11 7 10 13 10 6 9 2 6 6 6 12 8 8 16 14 14
27 26 26 10 7 5 9 8 4 5 2 7 5 3 4 4 1 4 5 2 7 10 8 13 10 13 15 16 16 17 10 11 7 6 2 12 1 8 6 9 10 10 11 13 18
28 27 22 2 3 9 12 8 4 1 3 4 2 3 6 11 3 6 6 6 5 7 11 12 13 13 18 20 19 18 14 9 4 3 7 5 6 7 9 6 5 9 18 20 18
31 31 14 6 5 8 8 5 2 3 2 5 4 4 7 9 8 8 9 5 5 10 8 11 10 5 17 16 13 19 3 5 7 3 7 7 4 6 16 25 3 17 16 18 16
33 32 7 7 7 7 4 3 3 8 11 8 9 10 10 10 5 5 7 6 8 8 5 5 7 10 19 9 5 8 5 5 6 6 3 6 2 2 10 19 26 29 13 14 10
29 4 4 5 12 2 4 1 3 5 9 9 10 7 5 7 2 3 7 5 9 11 4 6 5 19 14 13 2 6 5 9 9 4 4 4 4 1 16 22 22 25 26 21 8
6 5 5 2 6 3 1 6 5 9 8 7 4 6 8 12 9 9 5 7 7 14 8 8 6 7 15 7 10 1 1 4 7 1 4 3 1 7 1 8 13 21 19 22 23
2 4 1 3 3 1 3 4 4 8 7 7 6 7 8 7 8 8 6 6 9 10 8 7 3 7 9 2 2 7 5 3 5 3 2 4 1 6 5 8 7 8 9 14 19
5 3 1 3 2 3 1 2 1 6 7 1 2 4 5 8 5 6 7 3 6 4 4 2 4 5 12 12 7 10 3 4 2 5 6 4 0 3 9 10 12 6 3 7 6
6 5 4 3 3 5 9 8 1 3 5 5 6 6 7 6 5 5 9 10 7 5 3 4 4 6 9 5 7 6 2 4 6 9 9 2 2 5 7 9 11 14 13 8 9
4 5 4 5 5 6 8 6 9 6 3 1 3 7 5 5 6 5 9 9 7 4 9 6 2 3 5 8 3 3 8 4 5 5 5 5 3 5 6 9 12 11 12 12 12
3 4 5 5 6 9 6 8 10 10 4 1 2 7 4 3 4 8 11 10 11 10 4 5 4 5 10 13 15 8 11 9 13 15 6 4 6 11 11 10 10 11 7 9 10
4 4 5 9 9 7 6 6 9 6 9 6 7 11 8 5 5 5 8 7 3 8 8 3 3 6 7 13 16 12 15 14 25 11 9 7 3 7 6 8 8 10 8 2 12
4 4 2 6 7 8 8 0 5 6 3 5 4 3 6 7 6 6 6 7 7 5 5 4 2 3 4 10 14 8 6 4 6 8 4 4 3 4 8 10 8 12 14 12 10
Wind_Direction
349 345 342 340 339 336 333 329 326 324 321 319 320 321 322 322 308 209 239 223 187 218 187 300 226 260 270 272 286 290 345 262 270 281 295 339 11 17 46 91 86 116 150 205 176
346 343 341 341 338 333 328 324 321 318 316 313 314 318 321 326 277 241 238 226 147 144 197 251 247 222 252 269 265 180 197 239 251 270 317 333 18 338 36 29 61 69 37 249 180
346 343 342 339 333 329 324 320 315 312 309 307 310 314 322 313 288 246 339 211 166 167 230 271 268 204 225 248 258 251 231 258 276 278 290 322 348 330 337 13 309 166 182 206 226
342 342 340 335 333 330 324 318 311 307 302 302 305 310 322 271 276 33 55 112 149 201 255 284 276 252 230 241 252 253 259 236 265 279 307 315 338 324 0 288 318 150 175 188 215
339 337 336 333 331 327 320 315 310 304 300 298 293 298 290 234 248 144 148 144 152 176 215 232 263 239 237 237 262 253 254 255 253 277 266 309 293 267 311 308 330 68 176 191 199
336 335 334 333 332 329 325 319 311 304 299 290 266 265 226 257 208 152 165 154 232 177 220 241 248 243 266 277 266 271 299 290 288 273 278 248 257 284 280 297 299 300 266 198 194
335 333 333 334 335 331 329 326 322 312 298 267 211 216 259 245 199 183 185 181 200 201 233 247 251 330 305 319 290 301 306 298 292 272 260 283 278 246 239 244 260 252 247 272 359
336 333 332 334 337 334 330 324 323 327 357 151 180 234 251 241 225 271 285 214 227 210 220 275 321 304 276 305 340 333 310 291 281 264 266 186 253 228 260 219 247 246 207 219 73
336 334 332 333 338 333 322 309 298 336 59 149 191 243 269 329 241 244 219 252 210 249 257 278 48 344 344 312 329 287 264 276 278 242 242 200 237 242 253 216 223 215 168 219 91
337 334 332 332 333 334 321 284 263 314 217 208 263 282 276 14 119 320 187 270 258 195 309 260 16 235 306 311 243 263 252 255 251 274 247 232 206 234 254 291 202 162 170 91 101
337 334 331 331 327 336 347 12 7 357 240 248 264 220 334 1 120 240 136 238 292 158 245 262 195 235 244 228 234 253 273 282 289 289 317 171 179 236 252 236 137 151 177 120 113
336 335 333 330 325 325 256 285 41 218 311 281 267 257 233 80 265 195 128 212 232 238 246 276 248 240 254 260 260 258 258 274 283 285 307 298 234 218 273 266 200 176 172 137 125
334 334 334 328 321 309 215 319 358 32 282 292 228 264 98 214 287 326 145 182 254 263 242 242 260 271 253 251 258 261 270 272 263 307 318 319 294 221 239 299 272 98 115 123 133
332 332 334 331 356 345 329 329 39 43 328 198 187 141 209 234 247 170 330 230 263 259 266 265 276 269 273 281 275 244 256 273 273 287 285 59 284 277 220 245 264 144 117 127 108
330 331 330 328 301 304 306 337 59 53 12 167 90 132 288 245 96 202 157 225 266 277 288 275 271 272 276 267 277 274 233 259 277 259 268 278 266 271 269 244 232 163 136 113 113
328 325 335 82 208 252 288 321 12 358 245 122 74 57 344 341 274 175 194 211 220 251 257 266 273 272 279 284 283 282 274 257 275 237 264 237 208 275 276 275 179 148 125 118 114
325 317 315 277 239 319 322 337 5 231 230 79 30 346 336 297 300 0 305 357 317 306 302 286 259 25 32 355 339 346 263 284 255 287 223 228 252 82 9 0 239 135 118 114 114
324 313 219 217 249 288 3 1 262 350 20 28 9 324 288 269 31 336 351 329 319 21 328 2 354 40 341 334 237 323 46 266 217 216 271 355 319 59 45 25 21 31 26 73 69
318 304 255 234 230 280 39 293 320 26 16 352 322 315 316 51 349 344 359 339 30 42 20 344 312 331 343 345 25 280 307 319 295 138 66 217 226 69 26 35 28 23 28 9 27
318 294 268 181 141 74 53 256 48 58 19 355 336 339 354 355 352 0 335 41 8 39 31 335 314 318 320 24 341 260 272 10 359 82 222 224 118 229 2 59 33 34 22 13 9
258 309 223 328 68 74 237 308 37 58 65 12 6 331 340 336 344 341 323 18 41 23 1 14 341 309 343 183 161 345 15 16 179 116 301 313 129 306 337 113 78 74 30 28 327
322 311 256 69 27 212 132 42 332 38 21 16 341 290 347 11 343 324 305 342 91 18 5 72 257 294 286 292 30 110 19 69 320 315 236 214 211 114 129 147 145 158 207 143 287
318 273 261 87 19 352 357 352 101 6 37 10 340 340 16 6 331 310 334 298 102 66 85 350 344 333 337 11 63 89 242 223 254 227 248 76 192 85 117 143 164 172 179 191 227
297 320 347 356 52 24 0 311 354 131 153 312 337 323 294 286 281 282 306 321 130 164 140 109 230 234 240 268 262 296 301 266 256 254 228 215 153 205 170 161 160 176 178 205 220
233 358 342 329 341 325 333 314 299 297 134 82 219 284 282 322 322 309 321 352 2 134 179 144 220 290 291 291 300 244 263 268 260 268 278 278 188 205 205 194 206 185 140 186 192
345 360 346 297 285 311 273 240 280 359 26 353 341 340 0 341 32 348 8 10 311 352 2 353 309 331 314 310 300 329 317 223 235 269 294 306 84 148 145 121 127 160 186 165 76
343 342 290 289 297 288 270 111 348 11 317 291 339 13 317 12 8 330 298 273 263 272 286 298 326 354 275 313 325 308 267 343 26 14 7 30 91 104 74 91 89 77 72 67 66